Regional Weather Roundup
Issued by NWS

Home | Current Version | Previous Version | Text Only | Print | Product List | Glossary Off
Versions: 1 2 3 4 5 6 7 8 9 10 11 12 13 14 15 16 17 18 19 20 21 22 23 24 25 26 27 28 29 30 31 32 33 34 35 36 37 38 39 40 41 42 43 44 45 46 47 48 49 50

000
ASUS44 KMEG 010300
RWRTN
TENNESSEE HOURLY STATE WEATHER ROUNDUP
NATIONAL WEATHER SERVICE MEMPHIS TN
1000 PM CDT SAT APR 30 2016

TNZ002-004-019-021-049-052-054-088>092-010400-
WEST TENNESSEE

CITY           SKY/WX    TMP DP  RH WIND       PRES   REMARKS
MEMPHIS INTL   PTCLDY    71  64  78 SE7       29.84R
NWS MEMPHIS      N/A     67 N/A N/A MISG        N/A
JACKSON        MOCLDY    66  63  90 SE3       29.86S
DYERSBURG      CLEAR     68  63  83 SE6         N/A
$$

TNZ008-025-027-028-033-062-065-066-010400-
NORTH MIDDLE TENNESSEE

CITY           SKY/WX    TMP DP  RH WIND       PRES   REMARKS
NASHVILLE      CLOUDY    68  64  87 S5        29.90R
CLARKSVILLE    CLOUDY    66  64  93 E3        29.87S
CROSSVILLE     CLOUDY    66  61  84 SE8       29.99R
$$

TNZ061-075-076-078-094-096-097-010400-
SOUTH MIDDLE TENNESSEE

CITY           SKY/WX    TMP DP  RH WIND       PRES   REMARKS
SHELBYVILLE    PTCLDY    68  68 100 E5        29.93R
$$

TNZ017-018-042-046-047-010400-
NORTHEAST TENNESSEE

CITY           SKY/WX    TMP DP  RH WIND       PRES   REMARKS
TRI CITIES     LGT RAIN  61  60  97 NW3       30.05R FOG
$$

TNZ012-013-036-069-073-074-010400-
CENTRAL EAST TENNESSEE

CITY           SKY/WX    TMP DP  RH WIND       PRES   REMARKS
KNOXVILLE      CLOUDY    64  62  93 NE6       29.98S
OAK RIDGE      LGT RAIN  64  62  93 CALM      30.00R
$$

TNZ083-085-099-010400-
SOUTHEAST TENNESSEE

CITY           SKY/WX    TMP DP  RH WIND       PRES   REMARKS
CHATTANOOGA    CLOUDY    69  64  84 N7        29.96R
$$

SKY/WX REPORTED AS FAIR MEANS FEW OR NO CLOUDS BELOW
12 THOUSAND FEET.





USA.gov is the U.S. government's official web portal to all federal, state and local government web resources and services.